Regional Weather Roundup
Issued by NWS

Home | Current Version | Previous Version | Graphics & Text | Print | Product List | Glossary On
Versions: 1 2 3 4 5 6 7 8 9 10 11 12 13 14 15 16 17 18 19 20 21 22 23 24 25 26 27 28 29 30 31 32 33 34 35 36 37 38 39 40 41 42 43 44 45 46 47 48 49 50
000
ASUS43 KIND 281609
RWRIN

WEATHER ROUNDUP FOR INDIANA
NATIONAL WEATHER SERVICE INDIANAPOLIS IN
1200 PM EDT TUE JUL 28 2015

NOTE: "FAIR" INDICATES FEW OR NO CLOUDS BELOW 12,000 FEET WITH NO
SIGNIFICANT WEATHER AND/OR OBSTRUCTIONS TO VISIBILITY.

* - STATION DOES NOT REPORT WEATHER SUCH AS PRECIPITATION OR FOG.

+ - STATION NOT QUALITY CONTROLLED BY THE NATIONAL WEATHER SERVICE.
    USE DATA WITH CAUTION...ESPECIALLY DEWPOINT AND RELATIVE
    HUMIDITY OBSERVATIONS.

INZ001>003-010>013-019-020-281700-
NORTHWEST INDIANA

CITY           SKY/WX    TMP DP  RH WIND       PRES   REMARKS
GARY /AIRPORT/ MOSUNNY   86  72  62 S6        30.01R
KNOX *+        SUNNY     82  63  51 S8        30.01R
LA PORTE +     SUNNY     85  69  58 SE6       30.02R
MICHIGAN CITY+ SUNNY     82  63  51 SE6       30.02R
MONTICELLO +   SUNNY     83  74  74 SE6       29.99S
RENSSELAER +   MOSUNNY   82  75  78 CALM      30.00R

$$

LMZ046-743>745-281700-
SOUTHERN LAKE MICHIGAN

STATION/POSITION TIME  TEMP    WIND        PRES    WAVE
                       AIR SEA DIR/SP/G            HT
                 (UTC) (F)     (DEG/KT/KT) (MB)    (FT)
BURNS HARBOR     1500   84     120/  6/ 13 1015.9S
MICHIGAN CITY    1500   81     110/  9/ 11   N/A
5NW MICH CITY    1600   79 75  170/  4/  6   N/A     1

$$

INZ004-005-014>016-021>024-281700-
NORTH CENTRAL INDIANA

CITY           SKY/WX    TMP DP  RH WIND       PRES   REMARKS
ELKHART        SUNNY     84  63  48 E9        30.03R
GOSHEN         SUNNY     84  67  56 SE8       30.02S
LOGANSPORT +   SUNNY     82  66  57 SE7       30.01S
PERU/GRISSOM   SUNNY     84  72  68 VRB5      30.00R
ROCHESTER +    SUNNY     86  72  62 SE7       30.02S
SOUTH BEND     MOSUNNY   86  65  49 SE13      30.03R
WARSAW +       SUNNY     84  66  54 SE6       30.03R

$$

INZ006>009-017-018-025>027-281700-
NORTHEAST INDIANA

CITY           SKY/WX    TMP DP  RH WIND       PRES   REMARKS
ANGOLA *+      SUNNY     82  66  57 SE8       30.04S
AUBURN +       SUNNY     84  63  48 E6        30.04R
FORT WAYNE     SUNNY     84  68  58 S7        30.03R
HUNTINGTON +   SUNNY     83  67  58 SE5       30.02R

$$

INZ028-029-035-036-043>045-051>053-281700-
WEST CENTRAL INDIANA

CITY           SKY/WX    TMP DP  RH WIND       PRES   REMARKS
CRAWFORDSVL +  MOSUNNY   83  72  69 SE5         N/A
GREENCASTLE +  SUNNY     84  72  65 SE5       30.01R
LAFAYETTE      MOSUNNY   83  74  74 CALM      29.99R
TERRE HAUTE    MOSUNNY   86  75  69 SW5       29.99R HX  95

$$

INZ030>032-037>040-046>048-054>057-064-065-281700-
CENTRAL INDIANA

CITY           SKY/WX    TMP DP  RH WIND       PRES   REMARKS
FRANKFORT +    MOSUNNY   85  76  74 CALM      30.02S HX  95
GREENWOOD *+   MOSUNNY   84  70  61 CALM      30.01R
INDIANAPOLIS   NOT AVBL
-EAGLE CREEK   MOSUNNY   85  73  67 SE5       30.00R
KOKOMO *+      PTSUNNY   82  72  69 SE5       30.01S
MARION +       SUNNY     83  71  66 CALM      30.02R
MT COMFORT *+  MOSUNNY   84  75  74 CALM      30.01S
SHELBYVILLE    MOSUNNY   85  73  67 CALM      30.00R
ZIONSVILLE +   MOSUNNY   84  71  63 S3        30.01S

$$

INZ033-034-041-042-049-050-058-059-281700-
EAST CENTRAL INDIANA

CITY           SKY/WX    TMP DP  RH WIND       PRES   REMARKS
MUNCIE         MOSUNNY   83  71  67 VRB5      30.01S

$$

INZ060-061-067>069-081>083-085>088-281700-
SOUTHWEST INDIANA

CITY           SKY/WX    TMP DP  RH WIND       PRES   REMARKS
EVANSVILLE     SUNNY     87  74  64 S7        29.99R HX  95
HUNTINGBURG *+ SUNNY     86  75  70 S6        29.99R HX  95
WASHINGTON +   MOSUNNY   86  75  70 W3        29.98R HX  95

$$

INZ062-063-066-070>080-084-089>092-281700-
SOUTH CENTRAL AND SOUTHEAST INDIANA

CITY           SKY/WX    TMP DP  RH WIND       PRES   REMARKS
BLOOMINGTON    MOSUNNY   87  75  67 CALM      30.00R HX  96
MADISON *+     MOSUNNY   86  72  62 S3        30.02S
NORTH VERNON + MOSUNNY   88  73  62 S3        30.00S HX  96
SEYMOUR +      SUNNY     88  73  62 CALM      29.99S HX  96

$$




USA.gov is the U.S. government's official web portal to all federal, state and local government web resources and services.